[[{"header":{"parameterUnit":"m.s-1","parameterCategory":1,"la1":30.2991,"la2":30.254,"lo1":-89.0895,"lo2":-89.0444,"dy":0.0017,"dx":0.0017,"nx":28,"ny":28,"refTime":"2025-08-05T03:00:00:Z","depth":0,"parameterNumber":2,"parameterNumberName":"U-component_of_WINDS"},"data":[0,0,0,0,0,0,0,0,0,0,0,0,0,0,0,0,0,0,0,0,0,0,0,0,0,0,0,0,0,0,0,0,0,0,0,0,0,0,0,0,0,0,0,0,0,0,0,0,0,0,0,0,0,0,0,0,0,0,-2.733,-2.7329,0,-2.7259,-2.7258,-2.7257,-2.7151,-2.715,-2.7148,-2.7146,-2.7073,-2.7073,-2.7073,0,0,0,0,0,0,0,0,0,0,0,0,0,-2.7375,-2.7374,-2.733,-2.7329,-2.7328,-2.7259,-2.7258,-2.7257,-2.7152,-2.715,-2.7147,-2.7145,-2.7073,-2.7073,-2.7073,0,0,0,0,0,0,0,0,0,0,0,0,0,-2.7335,-2.7374,-2.733,-2.7267,-2.7261,-2.7259,-2.7258,-2.7257,-2.7152,-2.7149,-2.7147,-2.7144,-2.7073,-2.7073,-2.7073,-2.7127,0,0,-2.7072,-2.7072,0,0,0,0,0,0,0,0,-2.7337,-2.7333,-2.7278,-2.7272,-2.7265,-2.7211,-2.7247,-2.7213,-2.7153,-2.7194,-2.7146,-2.7143,-2.7121,-2.7117,-2.711,-2.7123,-2.712,-2.7072,-2.7072,-2.7072,-2.7072,0,0,0,0,0,0,0,-2.734,-2.7336,-2.7302,-2.7277,-2.7269,-2.7243,-2.7234,-2.724,-2.7174,-2.719,-2.7182,-2.7175,-2.7117,-2.711,-2.7107,-2.7119,-2.7072,-2.7072,-2.7071,-2.7071,-2.7172,-2.7174,0,0,0,0,0,0,-2.7352,-2.7339,-2.7304,-2.73,-2.7295,-2.7244,-2.7234,-2.7231,-2.7174,-2.7162,-2.7177,-2.717,-2.7112,-2.7108,-2.7104,-2.7162,-2.7072,-2.7071,-2.7071,-2.7169,-2.7172,-2.7175,0,0,0,0,0,0,-2.7353,-2.735,-2.7307,-2.7317,-2.7309,-2.7246,-2.7244,-2.7231,-2.7224,-2.7164,-2.7152,-2.7182,-2.711,-2.7105,-2.7122,-2.7158,-2.7071,-2.7071,-2.7165,-2.717,-2.7174,-2.7279,0,0,0,0,0,0,-2.7355,-2.7351,-2.7371,-2.7318,-2.7309,-2.7326,-2.7246,-2.7232,-2.7224,-2.7214,-2.7166,-2.7155,-2.7107,-2.7123,-2.7121,-2.7156,-2.7071,-2.7162,-2.7167,-2.7172,-2.7272,-2.7286,-2.7298,0,0,0,0,0,-2.7357,-2.7404,-2.7372,-2.7369,-2.7333,-2.7328,-2.7323,-2.7267,-2.7227,-2.7246,-2.7208,-2.7157,-2.7155,-2.7125,-2.7123,-2.7158,-2.7159,-2.7166,-2.7172,-2.7266,-2.7283,-2.7298,0,0,0,0,0,0,-2.7463,-2.7396,-2.736,-2.7391,-2.7366,-2.731,-2.7333,-2.7288,-2.7273,-2.7265,-2.7196,-2.7186,-2.7211,-2.7186,-2.7155,-2.7206,-2.7149,-2.7155,-2.7221,-2.7237,-2.7251,-2.7255,-2.707,0,0,0,0,0,-2.749,-2.7491,-2.7433,-2.7466,-2.7455,-2.7397,-2.7392,-2.7351,-2.7323,-2.7311,-2.7274,-2.7248,-2.7241,-2.7238,-2.7229,-2.7268,-2.7255,-2.7291,-2.7305,-2.7316,-2.7322,-2.7339,-2.7353,-2.7196,-2.7196,-2.7196,0,0,-2.7545,-2.7509,-2.7514,-2.7486,-2.7462,-2.7464,-2.7388,-2.7395,-2.7396,-2.7312,-2.7325,-2.7297,-2.7264,-2.7292,-2.7302,-2.7272,-2.7362,-2.7324,-2.7334,-2.7333,-2.7347,-2.7362,-2.7375,-2.7201,-2.72,-2.7199,0,0,-2.7647,-2.762,-2.7644,-2.7621,-2.7585,-2.7546,-2.7552,-2.7503,-2.7481,-2.7493,-2.743,-2.7431,-2.7421,-2.7399,-2.7387,-2.7481,-2.7432,-2.748,-2.7549,-2.7566,-2.7579,-2.7589,-2.7621,-2.7633,-2.7486,-2.7486,-2.7486,0,-2.772,-2.7722,-2.7662,-2.7672,-2.7661,-2.7586,-2.7609,-2.759,-2.7553,-2.7547,-2.7514,-2.7499,-2.7472,-2.7493,-2.7516,-2.7509,-2.7512,-2.7484,-2.7582,-2.7592,-2.7601,-2.763,-2.7642,-2.7492,-2.7491,-2.7491,-2.749,0,-2.7813,-2.7815,-2.7839,-2.7804,-2.7796,-2.7813,-2.7756,-2.7755,-2.7715,-2.768,-2.7692,-2.7656,-2.7638,-2.764,-2.7602,-2.7655,-2.7637,-2.7595,-2.7535,-2.7623,-2.7649,-2.766,-2.7501,-2.7498,-2.7497,-2.7495,0,0,-2.7977,-2.791,-2.792,-2.7903,-2.7858,-2.7858,-2.7872,-2.7853,-2.7853,-2.7831,-2.7839,-2.7833,-2.7792,-2.7778,-2.7737,-2.7753,-2.7827,-2.7707,-2.7705,-2.7729,-2.7882,-2.7913,-2.7927,-2.7796,-2.7797,-2.7799,-2.7884,0,-2.8069,-2.8087,-2.8034,-2.8065,-2.8066,-2.7995,-2.8006,-2.798,-2.7947,-2.7943,-2.7906,-2.7902,-2.785,-2.7841,-2.7854,-2.7815,-2.7856,-2.7809,-2.7801,-2.7802,-2.7809,-2.7941,-2.7974,-2.8055,-2.7894,-2.7896,-2.7897,0,-2.8177,-2.816,-2.8192,-2.8144,-2.8142,-2.8154,-2.8132,-2.8129,-2.8097,-2.8072,-2.8057,-2.8009,-2.8018,-2.7963,-2.7973,-2.7942,-2.7936,-2.7917,-2.7919,-2.7914,-2.7853,-2.7937,-2.808,-2.8092,-2.7913,-2.7911,-2.791,0,-2.8292,-2.8277,-2.8293,-2.8281,-2.8227,-2.8236,-2.8214,-2.8179,-2.8171,-2.8153,-2.8147,-2.813,-2.812,-2.8108,-2.8056,-2.8021,-2.8072,-2.8013,-2.805,-2.8051,-2.8062,-2.8062,-2.8204,-2.8063,-2.8063,-2.8062,-2.8062,0,-2.8398,-2.842,-2.8343,-2.8354,-2.8375,-2.8314,-2.8338,-2.8308,-2.8279,-2.8281,-2.822,-2.8223,-2.8155,-2.8151,-2.8111,-2.8125,-2.8122,-2.81,-2.8089,-2.8105,-2.8107,-2.8098,-2.809,-2.8065,-2.8065,-2.8064,-2.8064,0,-2.8529,-2.8479,-2.8491,-2.8439,-2.8426,-2.8445,-2.8399,-2.8406,-2.837,-2.8374,-2.8371,-2.8314,-2.8306,-2.8253,-2.8234,-2.8207,-2.8234,-2.8213,-2.8245,-2.8237,-2.8276,-2.8272,-2.8415,-2.843,-2.8282,-2.8284,-2.8285,0,-2.8598,-2.8613,-2.8562,-2.8559,-2.854,-2.8537,-2.8528,-2.8469,-2.8462,-2.8427,-2.8438,-2.8425,-2.8411,-2.8402,-2.8358,-2.8343,-2.8319,-2.837,-2.8316,-2.8331,-2.8316,-2.8315,-2.8315,-2.8381,-2.8383,-2.8384,-2.8386,0,-2.8727,-2.8701,-2.8691,-2.8673,-2.8665,-2.8647,-2.8626,-2.8628,-2.8562,-2.8558,-2.8549,-2.8538,-2.8518,-2.8505,-2.8482,-2.8458,-2.8411,-2.8404,-2.8411,-2.8425,-2.8442,-2.8431,-2.8274,-2.84,-2.8398,-2.8397,-2.8397,-2.8396,-2.8827,-2.8836,-2.8802,-2.8793,-2.8771,-2.8752,-2.8755,-2.872,-2.8711,-2.869,-2.8656,-2.8651,-2.8618,-2.8582,-2.8562,-2.8557,-2.853,-2.8541,-2.8543,-2.8546,-2.8554,-2.8445,-2.8553,-2.8553,-2.8552,-2.8552,-2.8552,0,-2.895,-2.8925,-2.8917,-2.8889,-2.8882,-2.8839,-2.8813,-2.8809,-2.8806,-2.878,-2.8768,-2.8757,-2.8744,-2.87,-2.8682,-2.8687,-2.8664,-2.8684,-2.8682,-2.8676,-2.858,-2.8575,-2.8702,-2.8702,-2.8702,-2.8702,-2.8702,-2.8702,-2.9013,-2.9026,-2.8997,-2.8998,-2.8972,-2.8967,-2.8956,-2.8938,-2.8916,-2.8907,-2.8896,-2.8867,-2.8833,-2.8813,-2.8799,-2.8786,-2.8781,-2.8808,-2.8788,-2.8698,-2.8684,-2.867,-2.8664,-2.8808,-2.8808,-2.8883,-2.8884,-2.8885]},{"header":{"parameterUnit":"m.s-1","parameterCategory":1,"la1":30.2991,"la2":30.254,"lo1":-89.0895,"lo2":-89.0444,"dy":0.0017,"dx":0.0017,"nx":28,"ny":28,"refTime":"2025-08-05T03:00:00:Z","depth":0,"parameterNumber":3,"parameterNumberName":"V-component_of_WINDS"},"data":[0,0,0,0,0,0,0,0,0,0,0,0,0,0,0,0,0,0,0,0,0,0,0,0,0,0,0,0,0,0,0,0,0,0,0,0,0,0,0,0,0,0,0,0,0,0,0,0,0,0,0,0,0,0,0,0,0,0,-2.3846,-2.3846,0,-2.3845,-2.3845,-2.3845,-2.3816,-2.3816,-2.3815,-2.3814,-2.381,-2.3811,-2.3811,0,0,0,0,0,0,0,0,0,0,0,0,0,-2.382,-2.3821,-2.3846,-2.3846,-2.3846,-2.3845,-2.3845,-2.3845,-2.3816,-2.3816,-2.3815,-2.3814,-2.381,-2.3811,-2.3811,0,0,0,0,0,0,0,0,0,0,0,0,0,-2.3827,-2.3821,-2.3846,-2.3832,-2.3831,-2.3845,-2.3845,-2.3845,-2.3817,-2.3816,-2.3814,-2.3813,-2.381,-2.3811,-2.3812,-2.3838,0,0,-2.3814,-2.3815,0,0,0,0,0,0,0,0,-2.3826,-2.3827,-2.3834,-2.3833,-2.3832,-2.383,-2.3834,-2.3842,-2.3817,-2.3822,-2.3814,-2.3813,-2.3817,-2.3818,-2.382,-2.3838,-2.3838,-2.3814,-2.3815,-2.3815,-2.3815,0,0,0,0,0,0,0,-2.3826,-2.3827,-2.3846,-2.3834,-2.3833,-2.3824,-2.3824,-2.3835,-2.3826,-2.3821,-2.3819,-2.382,-2.3817,-2.3819,-2.3819,-2.3838,-2.3814,-2.3815,-2.3815,-2.3816,-2.3873,-2.3874,0,0,0,0,0,0,-2.3828,-2.3827,-2.3846,-2.3846,-2.3826,-2.3826,-2.3825,-2.3831,-2.3826,-2.3824,-2.3821,-2.3818,-2.3818,-2.3818,-2.3819,-2.3847,-2.3815,-2.3816,-2.3816,-2.3872,-2.3873,-2.3875,0,0,0,0,0,0,-2.3827,-2.383,-2.3846,-2.3836,-2.3837,-2.3827,-2.3834,-2.3832,-2.3834,-2.3825,-2.3823,-2.3825,-2.3817,-2.3818,-2.3833,-2.3846,-2.3816,-2.3817,-2.3871,-2.3873,-2.3874,-2.3905,0,0,0,0,0,0,-2.3827,-2.383,-2.3841,-2.3836,-2.3838,-2.3861,-2.3835,-2.3833,-2.3836,-2.3833,-2.3828,-2.3827,-2.3816,-2.3832,-2.3834,-2.3847,-2.3818,-2.387,-2.3872,-2.3874,-2.3903,-2.3907,-2.3911,0,0,0,0,0,-2.3826,-2.3851,-2.3842,-2.3845,-2.3852,-2.3862,-2.3863,-2.3851,-2.3837,-2.3848,-2.3841,-2.3827,-2.3845,-2.3833,-2.3835,-2.3849,-2.3869,-2.3871,-2.3873,-2.3901,-2.3906,-2.3911,0,0,0,0,0,0,-2.3858,-2.385,-2.384,-2.3864,-2.3864,-2.3857,-2.387,-2.3858,-2.3862,-2.3859,-2.3843,-2.3842,-2.3858,-2.3856,-2.3843,-2.3872,-2.3854,-2.3857,-2.3874,-2.3879,-2.3884,-2.3884,-2.3818,0,0,0,0,0,-2.3868,-2.3878,-2.387,-2.3891,-2.3892,-2.3881,-2.3885,-2.3876,-2.3874,-2.3874,-2.3869,-2.3867,-2.3872,-2.3876,-2.388,-2.3902,-2.3899,-2.3912,-2.3916,-2.392,-2.3922,-2.393,-2.3935,-2.3882,-2.3882,-2.3882,0,0,-2.3888,-2.3885,-2.3892,-2.3898,-2.3896,-2.3905,-2.3881,-2.3893,-2.3898,-2.3876,-2.3889,-2.3884,-2.3881,-2.3899,-2.3906,-2.3897,-2.3936,-2.3923,-2.3926,-2.3926,-2.3933,-2.3938,-2.3942,-2.3884,-2.3883,-2.3883,0,0,-2.3929,-2.3929,-2.3946,-2.3944,-2.3942,-2.3934,-2.3938,-2.3932,-2.3929,-2.3942,-2.3924,-2.3929,-2.3939,-2.3936,-2.3936,-2.3972,-2.3958,-2.3974,-2.3997,-2.4004,-2.4008,-2.4012,-2.4022,-2.4026,-2.3976,-2.3977,-2.3977,0,-2.3955,-2.3969,-2.3956,-2.3967,-2.3968,-2.3948,-2.3962,-2.3962,-2.3961,-2.3961,-2.3951,-2.396,-2.3957,-2.3971,-2.398,-2.3981,-2.3983,-2.3974,-2.4009,-2.4012,-2.4015,-2.4025,-2.4029,-2.3978,-2.3978,-2.3978,-2.3978,0,-2.3998,-2.4008,-2.4021,-2.402,-2.4023,-2.4036,-2.4023,-2.4027,-2.4016,-2.4009,-2.402,-2.4015,-2.4016,-2.4019,-2.4009,-2.4031,-2.4025,-2.4012,-2.3993,-2.4022,-2.4031,-2.4034,-2.3981,-2.398,-2.398,-2.3979,0,0,-2.4061,-2.4051,-2.4056,-2.4053,-2.4048,-2.4054,-2.4064,-2.4065,-2.4068,-2.4067,-2.4074,-2.408,-2.4067,-2.4067,-2.4056,-2.4063,-2.4088,-2.4049,-2.4048,-2.4054,-2.4108,-2.4116,-2.4121,-2.4078,-2.4079,-2.408,-2.4107,0,-2.4099,-2.4118,-2.4104,-2.4124,-2.413,-2.4109,-2.4118,-2.4114,-2.4107,-2.4109,-2.41,-2.4104,-2.4088,-2.4087,-2.4093,-2.4084,-2.4098,-2.4082,-2.4082,-2.4082,-2.4082,-2.4126,-2.4136,-2.4162,-2.4111,-2.4111,-2.4112,0,-2.4146,-2.4146,-2.4167,-2.4156,-2.4158,-2.4167,-2.4164,-2.4168,-2.4162,-2.4156,-2.4154,-2.414,-2.4147,-2.4129,-2.4136,-2.4125,-2.4124,-2.4119,-2.412,-2.4118,-2.4098,-2.4124,-2.4171,-2.4174,-2.4117,-2.4117,-2.4116,0,-2.4187,-2.4192,-2.4204,-2.4203,-2.4192,-2.4198,-2.4193,-2.4186,-2.4186,-2.4184,-2.4183,-2.4182,-2.418,-2.4178,-2.4163,-2.4152,-2.4171,-2.4153,-2.4164,-2.4164,-2.4169,-2.4169,-2.4215,-2.4171,-2.4171,-2.4171,-2.4171,0,-2.4229,-2.4242,-2.4222,-2.4229,-2.4241,-2.4225,-2.4237,-2.423,-2.4223,-2.4226,-2.4208,-2.4212,-2.4192,-2.4193,-2.4181,-2.4187,-2.4187,-2.4181,-2.4177,-2.4182,-2.4182,-2.418,-2.4177,-2.4172,-2.4172,-2.4171,-2.4171,0,-2.4277,-2.4264,-2.4275,-2.4263,-2.426,-2.4269,-2.4258,-2.4263,-2.4253,-2.4257,-2.4257,-2.4242,-2.4241,-2.4226,-2.4222,-2.4214,-2.4224,-2.4218,-2.4226,-2.4224,-2.4235,-2.4233,-2.428,-2.4284,-2.424,-2.424,-2.4241,0,-2.4305,-2.4313,-2.4301,-2.4303,-2.4299,-2.4301,-2.4301,-2.4284,-2.4284,-2.4275,-2.428,-2.4278,-2.4276,-2.4275,-2.4262,-2.4258,-2.4251,-2.4267,-2.425,-2.4253,-2.4248,-2.4247,-2.4246,-2.4271,-2.4271,-2.4272,-2.4272,0,-2.4354,-2.4346,-2.4346,-2.4344,-2.4343,-2.434,-2.4336,-2.4338,-2.4319,-2.4319,-2.4318,-2.4316,-2.4311,-2.4308,-2.4301,-2.4294,-2.4279,-2.4277,-2.4279,-2.4284,-2.4287,-2.4283,-2.4234,-2.4276,-2.4276,-2.4276,-2.4275,-2.4275,-2.439,-2.4396,-2.4387,-2.4387,-2.4382,-2.4378,-2.438,-2.437,-2.4369,-2.4364,-2.4354,-2.4354,-2.4343,-2.4333,-2.4327,-2.4325,-2.4316,-2.432,-2.432,-2.4321,-2.4322,-2.4288,-2.4324,-2.4324,-2.4323,-2.4323,-2.4323,0,-2.4436,-2.4429,-2.4429,-2.4423,-2.4422,-2.4408,-2.4402,-2.4401,-2.4402,-2.4394,-2.4391,-2.4388,-2.4384,-2.437,-2.4364,-2.4365,-2.4357,-2.4364,-2.4363,-2.4361,-2.4332,-2.433,-2.437,-2.437,-2.437,-2.437,-2.437,-2.437,-2.446,-2.4468,-2.4458,-2.4462,-2.4454,-2.4454,-2.4451,-2.4446,-2.4439,-2.4437,-2.4433,-2.4424,-2.4413,-2.4405,-2.44,-2.4395,-2.4393,-2.4401,-2.4394,-2.4368,-2.4363,-2.4359,-2.4357,-2.4401,-2.4402,-2.4423,-2.4423,-2.4423]}]]